Regional Weather Roundup
Issued by NWS

Home | Current Version | Previous Version | Text Only | Print | Product List | Glossary Off
Versions: 1 2 3 4 5 6 7 8 9 10 11 12 13 14 15 16 17 18 19 20 21 22 23 24 25 26 27 28 29 30 31 32 33 34 35 36 37 38 39 40 41 42 43 44 45 46 47 48 49 50

000
ASUS45 KSLC 262310
RWRUT

UTAH REGIONAL WEATHER ROUNDUP
NATIONAL WEATHER SERVICE SALT LAKE CITY UT
500 PM MDT TUE MAY 26 2015

UTZ001>011-023>025-270000-

NORTHERN UTAH

CITY           SKY/WX    TMP DP  RH WIND       PRES   REMARKS
BRIGHAM CITY   CLOUDY    54  49  83 N7        30.06R
HILL AFB       PTSUNNY   61  51  68 S6        30.04R
LOGAN          HVY RAIN  50  46  86 N16       30.05R FOG
OGDEN          PTSUNNY   63  50  62 SE8       30.02S
PROVO AIRPORT  PTSUNNY   61  48  63 NW13G31   30.02R THUNDER
SALT LAKE CITY PTSUNNY   60  50  69 E7        30.02S
VERNAL         CLOUDY    65  43  44 W6        30.00F
WENDOVER       MOSUNNY   64  48  55 S7        29.98F
HEBER CITY     PTSUNNY   59  46  63 NW5       30.03R
WEST JORDAN    MOSUNNY   61  52  72 N5        30.04S

$$

UTZ012>022-026-027-270000-

SOUTHERN/CENTRAL UTAH

CITY           SKY/WX    TMP DP  RH WIND       PRES   REMARKS
BLANDING       PTSUNNY   62  50  65 SE7       30.14F
BRYCE CANYON   CLOUDY    54  40  59 CALM      30.17F
CEDAR CITY     TSTM      58  49  72 NE7       30.04F
DELTA          CLOUDY    62  40  45 S24G35    30.02R
HANKSVILLE     PTSUNNY   75  37  25 SW23      29.99S
MILFORD        CLOUDY    58  47  66 NE14      30.04R
MOAB/CYNLANDS  SUNNY     74  40  29 W18       29.95F
PRICE          MOSUNNY   69  39  33 VRB6      30.01F
ST GEORGE      PTCLDY    86  37  17 SW18      29.89F

$$

REGIONAL REPORTS     COLORADO/ARIZONA

CITY           SKY/WX    TMP DP  RH WIND       PRES   REMARKS
CRAIG, CO      PTSUNNY   62  42  47 CALM      30.07F
GRAND JUNCTION LGT RAIN  56  50  80 E17       30.05F
RIFLE          PTSUNNY   58  45  62 E16       30.05F
MONTROSE       LGT RAIN  57  46  66 NE5       30.14S
CORTEZ         MOSUNNY   68  40  35 NW13      30.09S
PAGE, AZ       MOSUNNY   80  39  23 VRB6      29.96F
GRAND CANYON   PTSUNNY   70  31  23 SW12      30.12F
KINGMAN        SUNNY     84  22  10 SW21G33   29.95F
FLAGSTAFF      PTSUNNY   66  31  27 SW15G21   30.17F

$$

REGIONAL REPORTS    NEVADA/IDAHO/WYOMING

CITY           SKY/WX    TMP DP  RH WIND       PRES   REMARKS
LAS VEGAS, NV  MOSUNNY   90  31  12 S15G22    29.79F
ELY            CLOUDY    63  35  35 S7        30.07F
ELKO           MOSUNNY   71  37  28 W17G23    29.98S
POCATELLO, ID  MOSUNNY   66  47  50 S15       29.97F
BURLEY         MOSUNNY   69  43  38 SW7       29.93F
EVANSTON, WY   LGT RAIN  48  45  89 W14       30.09R FOG
ROCK SPRINGS   CLOUDY    55  43  63 SW29G35   30.06R THUNDER
KEMMERER       MOSUNNY   54  41  62 W14       30.08F

$$


USA.gov is the U.S. government's official web portal to all federal, state and local government web resources and services.